Simultaneous Nadir Overpasses (SNOs) Predictions

Prediction of SNOs between AQUA and METOP-B Satellite Orbit:

Table of predicted SNOs for the next 14.0 days since TLE Epoch: 10/3/2015
Index Date (AQUA) Time (AQUA) Lat,Lon (AQUA) SZA (AQUA ) Date (METOP-B) Time (METOP-B) Lat,Lon (METOP-B) SZA (METOP-B ) Distance(km) Time Diff (sec)
1 10/03/2015 12:12:59 -73.76, 171.14 102.37 10/03/2015 12:12:28 -73.74, 171.18 102.39 2.40 31
2 10/03/2015 13:02:27 73.78, -21.27 77.67 10/03/2015 13:03:07 73.79, -21.37 77.68 3.25 40
3 10/06/2015 07:47:13 -73.76,-122.43 101.29 10/06/2015 07:46:48 -73.77,-122.34 101.28 2.73 25
4 10/06/2015 08:36:42 73.83, 45.04 78.81 10/06/2015 08:37:27 73.81, 45.10 78.79 2.97 45
5 10/09/2015 02:31:49 73.08, 137.78 79.09 10/09/2015 02:30:43 73.01, 135.03 79.06 89.64 66
6 10/09/2015 03:21:27 -73.73, -55.94 100.24 10/09/2015 03:21:10 -73.74, -55.99 100.23 2.02 17
7 10/09/2015 04:10:56 73.81, 111.53 79.86 10/09/2015 04:11:48 73.84, 111.57 79.89 3.05 52
8 10/11/2015 22:06:08 73.35,-156.32 80.42 10/11/2015 22:04:59 73.28,-157.97 80.38 53.37 69
9 10/11/2015 22:55:41 -73.74, 10.50 99.17 10/11/2015 22:55:31 -73.76, 10.46 99.14 3.30 10
10 10/11/2015 23:45:10 73.82, 177.96 80.93 10/11/2015 23:46:10 73.81, 177.90 80.92 2.13 60
11 10/14/2015 17:40:26 73.64, -90.48 81.77 10/14/2015 17:39:13 73.60, -90.85 81.74 12.35 73
12 10/14/2015 18:29:54 -73.76, 76.89 98.09 10/14/2015 18:29:51 -73.78, 76.91 98.07 2.03 3




NCC Satellite Simultaneous Nadir Overpasses (SNOs) Prediction Service
